Location: Ch�risy
(50.2331°N, 2.9131°E)
Time: 23:51:04
(UTC+00:00)

Okean O Rocket - Pass Details

Date: 17 January 2021
Orbit: 622 x 645 km, 98.2° (Epoch: 01 March)

Event Time Altitude Azimuth Distance (km) Brightness Sun altitude
Rises 17:06:04 0° 160° (SSE) 2,945 5.1 -7.7°
Reaches altitude 10° 17:08:16 10° 159° (SSE) 2,039 4.2 -8.0°
Maximum altitude 17:12:43 78° 74° (ENE) 663 1.6 -8.7°
Drops below altitude 10° 17:17:10 10° 348° (NNW) 2,046 4.1 -9.4°
Sets 17:19:23 0° 347° (NNW) 2,957 5.0 -9.7°
